EW9675 Weather Reports


time (UTC)temp
F
wind
direction
speed
knots
gust
knots
rain 1hr
in
rain 24hr
in
rain mn
in
humidity
%
barometer
mb
20260505184503 57 0 0.0 0.0 0.00 0.02 0.00 80 1021.6
20260505184004 57 0 0.0 0.0 0.00 0.02 0.00 80 1021.6
20260505183504 57 0 0.0 0.0 0.00 0.02 0.00 80 1021.6
20260505183003 57 0 0.0 0.0 0.00 0.02 0.00 80 1021.6
20260505182524 58 0 0.0 0.0 0.00 0.02 0.00 80 1021.6
20260505182003 57 11 0.9 0.9 0.00 0.02 0.00 79 1021.6
20260505181504 58 9 0.9 4.3 0.00 0.02 0.00 79 1021.6
20260505181004 58 9 0.0 4.3 0.00 0.02 0.00 79 1021.6
20260505180503 58 0 0.0 0.0 0.00 0.03 0.00 79 1021.6
20260505180003 58 0 0.0 0.0 0.00 0.03 0.00 79 1021.6
20260505175503 58 0 0.0 0.0 0.00 0.04 0.00 79 1021.7
20260505175003 58 0 0.9 0.0 0.00 0.04 0.00 79 1021.7
20260505174503 58 299 1.7 5.2 0.00 0.04 0.00 80 1021.7
20260505174003 58 324 0.9 9.6 0.00 0.04 0.00 81 1021.8
20260505173525 57 352 0.0 9.6 0.00 0.04 0.00 82 1021.8
20260505173004 57 0 0.0 0.0 0.00 0.04 0.00 82 1021.8
20260505172504 57 0 0.0 0.0 0.00 0.04 0.00 82 1021.8
20260505172003 57 0 0.0 0.0 0.00 0.04 0.00 82 1021.7
20260505171504 57 0 0.0 0.0 0.00 0.04 0.00 82 1021.8
20260505171004 58 0 0.0 0.0 0.00 0.04 0.00 82 1021.9
20260505170503 58 0 0.0 0.0 0.00 0.04 0.00 82 1021.8
20260505170024 58 0 0.0 0.0 0.00 0.04 0.00 82 1021.8
20260505165504 58 0 0.0 0.0 0.00 0.04 0.00 81 1022.0
20260505165003 58 0 0.0 0.0 0.00 0.04 0.00 81 1022.0
20260505164503 58 0 0.0 0.0 0.00 0.04 0.00 80 1021.9
20260505164024 58 0 0.0 0.0 0.00 0.04 0.00 80 1022.0
20260505163503 58 0 0.0 0.0 0.00 0.04 0.00 80 1022.1
20260505163004 58 0 0.0 0.0 0.00 0.04 0.00 80 1022.1
20260505162503 58 0 0.0 0.0 0.00 0.04 0.00 80 1022.2
20260505162004 58 40 0.0 2.6 0.00 0.05 0.00 80 1022.2
20260505161504 58 40 0.0 2.6 0.00 0.05 0.00 80 1022.2
20260505161004 58 0 0.0 0.0 0.00 0.05 0.00 80 1022.3
20260505160504 58 40 0.0 2.6 0.00 0.05 0.00 80 1022.3
20260505153024 58 29 2.6 7.8 0.00 0.05 0.00 79 1022.4
20260505152504 58 173 2.6 7.8 0.00 0.05 0.00 79 1022.5
20260505152024 58 212 2.6 7.0 0.00 0.05 0.00 80 1022.6
20260505151503 58 2 1.7 7.0 0.00 0.05 0.00 79 1022.5
20260505151004 58 355 0.9 7.0 0.00 0.05 0.00 79 1022.6
20260505150524 58 338 0.9 5.2 0.00 0.05 0.00 79 1022.6
20260505140504 58 0 0.0 0.0 0.00 0.06 0.06 80 1022.6
20260505125004 58 0 0.0 0.0 0.00 0.06 0.06 79 1023.3
20260505124504 58 0 0.0 0.0 0.00 0.06 0.06 79 1023.3
20260505124004 58 0 0.0 0.0 0.00 0.06 0.06 79 1023.3
20260505123504 58 0 0.0 0.0 0.00 0.06 0.06 79 1023.3
20260505123004 58 0 0.0 0.0 0.00 0.06 0.06 79 1023.3
20260505122525 58 0 0.0 0.0 0.00 0.06 0.06 79 1023.3
20260505122004 58 0 0.0 0.0 0.00 0.06 0.06 78 1023.3
20260505121504 58 0 0.0 0.0 0.00 0.06 0.06 78 1023.3
20260505121004 58 0 0.0 0.0 0.00 0.06 0.06 78 1023.2
20260505120504 58 0 0.0 4.3 0.00 0.06 0.06 78 1023.3
20260505120005 58 0 0.9 4.3 0.00 0.06 0.06 79 1023.3
20260505115525 58 101 1.7 3.5 0.00 0.06 0.06 78 1023.3
20260505115004 58 101 2.6 5.2 0.00 0.06 0.06 78 1023.3
20260505114525 58 101 1.7 5.2 0.00 0.06 0.06 79 1023.2
20260505114025 58 101 0.0 4.3 0.00 0.06 0.06 79 1023.3
20260505113504 58 0 0.0 0.0 0.00 0.06 0.06 79 1023.3
20260505113004 58 0 0.0 0.0 0.00 0.06 0.06 79 1023.4
20260505112504 58 0 0.0 0.0 0.00 0.06 0.06 78 1023.4
20260505112004 58 0 0.0 0.0 0.00 0.06 0.06 79 1023.4
20260505111504 58 0 0.0 0.0 0.00 0.06 0.06 79 1023.4
20260505111004 58 0 0.0 0.0 0.00 0.06 0.06 79 1023.5
20260505110504 58 0 0.0 0.0 0.00 0.06 0.06 79 1023.5
20260505102004 58 100 0.0 5.2 0.00 0.06 0.06 78 1023.4
20260505101504 58 0 0.0 0.0 0.00 0.06 0.06 78 1023.4
20260505101004 58 0 0.0 0.0 0.00 0.06 0.06 78 1023.4
20260505100504 58 0 0.0 0.0 0.00 0.06 0.06 78 1023.5
20260505100004 57 0 0.0 0.0 0.00 0.06 0.06 78 1023.5
20260505095504 57 0 0.0 0.0 0.00 0.06 0.06 78 1023.5
20260505095025 57 0 0.0 0.0 0.00 0.06 0.06 79 1023.4
20260505094525 57 0 0.0 0.0 0.00 0.06 0.06 78 1023.4
20260505094004 57 0 0.0 0.0 0.00 0.06 0.06 78 1023.3
20260505093504 57 0 0.0 0.0 0.00 0.06 0.06 78 1023.3
20260505093004 57 0 0.0 0.0 0.00 0.06 0.06 78 1023.3
20260505092504 57 134 0.9 0.9 0.00 0.06 0.06 78 1023.3
20260505092004 57 134 1.7 2.6 0.00 0.06 0.06 78 1023.3
20260505091504 57 134 1.7 3.5 0.00 0.06 0.06 78 1023.2
20260505091025 57 134 1.7 4.3 0.00 0.06 0.06 77 1023.2
20260505090504 57 140 0.9 4.3 0.00 0.06 0.06 77 1023.1
20260505090004 57 154 0.0 3.5 0.00 0.06 0.06 77 1023.0
20260505085504 58 0 0.0 0.0 0.00 0.06 0.06 76 1023.0
20260505085004 58 0 0.0 0.0 0.00 0.06 0.06 76 1022.9
20260505084504 58 0 0.0 0.0 0.00 0.06 0.06 75 1022.9
20260505084004 58 0 0.0 0.0 0.00 0.06 0.06 74 1022.8
20260505083504 57 0 0.0 0.0 0.00 0.06 0.06 74 1022.7
20260505083004 58 0 0.0 0.0 0.00 0.06 0.06 73 1022.6
20260505082504 58 0 0.0 0.0 0.00 0.06 0.06 73 1022.6
20260505082004 58 0 0.0 0.0 0.00 0.06 0.06 73 1022.5
20260505081504 58 217 0.0 0.9 0.00 0.06 0.06 72 1022.5
20260505081004 58 225 0.9 2.6 0.00 0.06 0.06 72 1022.5
20260505080504 59 218 1.7 4.3 0.00 0.06 0.06 71 1022.4
20260505080004 59 219 2.6 4.3 0.00 0.06 0.06 71 1022.4
20260505075504 59 213 2.6 4.3 0.00 0.06 0.06 72 1022.4
20260505075004 59 199 2.6 7.8 0.00 0.06 0.06 72 1022.4
20260505074504 60 195 2.6 7.8 0.00 0.06 0.06 71 1022.3
20260505074004 60 203 2.6 7.8 0.00 0.06 0.06 71 1022.3
20260505073504 60 205 3.5 7.8 0.00 0.06 0.06 70 1022.3
20260505073004 61 208 4.3 7.0 0.00 0.06 0.06 70 1022.3
20260505072504 61 214 5.2 8.7 0.00 0.06 0.06 69 1022.3
20260505072004 61 222 6.1 11.3 0.00 0.06 0.06 69 1022.3
20260505071525 61 227 6.1 11.3 0.00 0.06 0.06 68 1022.3
20260505071003 62 224 5.2 11.3 0.00 0.06 0.06 67 1022.2
20260505070503 62 222 5.2 11.3 0.00 0.06 0.06 66 1022.1
20260505070004 63 225 6.1 11.3 0.00 0.06 0.06 67 1022.2
20260505065525 63 222 6.1 11.3 0.00 0.06 0.06 67 1022.2
20260505065004 63 219 5.2 13.0 0.00 0.06 0.06 67 1022.1
20260505064504 63 223 5.2 13.0 0.00 0.06 0.06 65 1022.1
20260505064003 63 225 5.2 12.2 0.00 0.06 0.06 64 1022.2
20260505063504 64 222 4.3 12.2 0.00 0.06 0.06 62 1022.1
20260505063004 63 229 3.5 12.2 0.00 0.06 0.06 63 1022.1
20260505062503 63 244 4.3 7.8 0.00 0.06 0.06 63 1022.0
20260505062004 63 249 5.2 7.8 0.00 0.06 0.06 62 1022.0
20260505061504 63 255 5.2 7.8 0.00 0.06 0.06 62 1022.0
20260505061004 64 256 4.3 9.6 0.00 0.06 0.06 61 1022.0
20260505060503 64 239 3.5 9.6 0.00 0.06 0.06 59 1021.9
20260505060004 65 228 3.5 7.8 0.00 0.06 0.06 59 1021.9
20260505055504 64 231 3.5 7.0 0.00 0.06 0.06 64 1021.8
20260505055004 63 220 3.5 7.0 0.00 0.06 0.06 63 1021.9
20260505054504 63 218 3.5 7.0 0.00 0.06 0.06 63 1021.9
20260505054003 63 215 3.5 7.8 0.00 0.06 0.06 63 1021.8
20260505053503 63 218 3.5 7.8 0.00 0.06 0.06 65 1021.8
20260505053024 64 229 3.5 7.8 0.00 0.06 0.06 64 1021.8
20260505052525 64 234 2.6 7.0 0.00 0.06 0.06 64 1021.7
20260505052025 64 225 1.7 7.0 0.00 0.06 0.06 64 1021.7
20260505051503 63 220 1.7 5.2 0.00 0.06 0.06 64 1021.7
20260505051004 63 240 3.5 5.2 0.00 0.06 0.06 64 1021.7
20260505050503 63 245 4.3 9.6 0.00 0.06 0.06 64 1021.7
20260505041503 63 279 5.2 9.6 0.00 0.06 0.06 65 1021.6
20260505041004 63 268 5.2 9.6 0.00 0.06 0.06 65 1021.6
20260505040503 63 257 5.2 8.7 0.00 0.06 0.06 65 1021.7
20260505040004 63 259 6.1 8.7 0.00 0.06 0.06 65 1021.8
20260505035504 63 240 6.1 11.3 0.00 0.06 0.06 65 1021.8
20260505035004 63 223 6.1 12.2 0.00 0.06 0.06 65 1021.9
20260505034504 63 232 3.5 12.2 0.00 0.06 0.06 65 1021.9
20260505034003 63 249 2.6 9.6 0.00 0.06 0.06 65 1022.0
20260505033503 64 227 4.3 8.7 0.00 0.06 0.06 64 1022.0
20260505033003 63 246 6.1 8.7 0.00 0.06 0.06 64 1022.0
20260505032503 63 250 7.0 9.6 0.00 0.06 0.06 66 1022.1
20260505032004 63 249 6.1 11.3 0.00 0.06 0.06 65 1022.1
20260505031503 62 258 5.2 11.3 0.00 0.06 0.06 65 1022.2
20260505031003 63 251 5.2 8.7 0.00 0.06 0.06 68 1022.3
20260505030503 63 219 6.1 12.2 0.00 0.06 0.06 66 1022.3
20260505030004 63 219 7.0 13.0 0.00 0.06 0.06 67 1022.4
20260505025525 62 235 6.1 13.0 0.00 0.06 0.06 66 1022.4
20260505025004 62 241 6.1 12.2 0.00 0.06 0.06 66 1022.5
20260505024504 62 256 5.2 8.7 0.00 0.06 0.06 65 1022.6
20260505024004 62 269 5.2 8.7 0.00 0.06 0.06 66 1022.6
20260505023504 63 264 4.3 13.0 0.00 0.06 0.06 65 1022.7
20260505023004 64 263 4.3 13.0 0.00 0.06 0.06 64 1022.7
20260505022504 63 250 5.2 8.7 0.00 0.06 0.06 66 1022.7
20260505022004 63 251 5.2 8.7 0.00 0.06 0.06 66 1022.7
20260505021504 63 253 6.1 8.7 0.00 0.06 0.06 68 1022.7
20260505021004 62 264 6.1 9.6 0.00 0.06 0.06 69 1022.7
20260505020504 62 275 6.1 12.2 0.00 0.06 0.06 70 1022.8
20260505020004 63 274 5.2 12.2 0.00 0.11 0.06 70 1022.8
20260505015504 63 280 5.2 8.7 0.00 0.11 0.06 73 1022.9
20260505015004 62 270 4.3 8.7 0.00 0.11 0.06 73 1022.9
20260505014504 62 264 3.5 8.7 0.00 0.11 0.06 72 1022.9
20260505014004 62 277 3.5 7.0 0.00 0.11 0.06 73 1022.9
20260505013504 61 269 3.5 8.7 0.00 0.11 0.06 73 1022.9
20260505013004 61 267 3.5 8.7 0.00 0.11 0.06 73 1022.8
20260505012504 61 284 3.5 7.8 0.00 0.11 0.06 75 1022.8
20260505012004 61 284 4.3 5.2 0.00 0.11 0.06 80 1022.7
20260505011504 60 261 4.3 7.8 0.00 0.11 0.06 80 1022.7
20260505011004 60 260 4.3 8.7 0.00 0.11 0.06 80 1022.8
20260505010525 61 273 3.5 8.7 0.00 0.12 0.06 83 1022.7
20260505010025 60 281 3.5 7.0 0.00 0.13 0.06 84 1022.7
20260505005504 60 258 4.3 7.0 0.00 0.13 0.06 85 1022.7
20260505005004 60 279 4.3 7.8 0.00 0.13 0.06 87 1022.6
20260505004504 60 296 4.3 7.8 0.00 0.13 0.06 88 1022.6
20260505004004 59 294 3.5 7.0 0.00 0.13 0.06 89 1022.5
20260505003504 59 299 3.5 7.0 0.00 0.13 0.06 89 1022.5
20260505003004 59 275 3.5 7.0 0.00 0.13 0.06 90 1022.5
20260505002525 59 261 2.6 7.8 0.00 0.13 0.06 90 1022.5
20260505002004 59 250 2.6 7.8 0.00 0.13 0.06 91 1022.4
20260505001504 58 241 1.7 7.0 0.00 0.13 0.06 92 1022.3
20260505001004 58 251 0.9 4.3 0.00 0.13 0.06 92 1022.3
20260505000504 59 262 1.7 5.2 0.00 0.13 0.06 92 1022.3
20260505000004 58 263 1.7 5.2 0.00 0.13 0.06 93 1022.3
20260504235504 58 267 0.9 4.3 0.00 0.13 0.06 93 1022.2
20260504235004 58 267 0.9 4.3 0.00 0.13 0.06 93 1022.2
20260504234504 58 262 0.9 4.3 0.00 0.13 0.06 93 1022.1
20260504234004 58 259 0.0 4.3 0.00 0.13 0.06 93 1022.1
20260504233504 58 278 0.0 0.9 0.00 0.13 0.06 93 1022.1
20260504233004 58 262 0.0 0.9 0.00 0.13 0.06 93 1022.1
20260504232525 58 249 0.0 2.6 0.00 0.13 0.06 93 1022.2
20260504232004 58 241 0.9 2.6 0.00 0.13 0.06 93 1022.1
20260504231504 58 231 0.9 4.3 0.00 0.13 0.06 93 1022.1
20260504231004 57 218 0.9 4.3 0.00 0.13 0.06 93 1022.1
20260504230504 57 131 0.0 4.3 0.00 0.13 0.06 93 1022.0
20260504230025 57 122 0.0 3.5 0.00 0.13 0.06 93 1022.0
20260504225504 57 128 0.0 2.6 0.00 0.13 0.06 93 1021.9
20260504225025 57 0 0.0 0.0 0.00 0.13 0.06 93 1021.8
20260504224504 56 0 0.0 0.0 0.00 0.13 0.06 93 1021.7
20260504224025 56 0 0.0 0.0 0.00 0.16 0.06 93 1021.8
20260504223504 56 0 0.0 0.0 0.00 0.21 0.06 93 1021.7
20260504223004 56 0 0.0 0.0 0.00 0.30 0.06 93 1021.6
20260504222525 56 0 0.0 0.0 0.00 0.30 0.06 93 1021.6
20260504222004 55 17 0.0 0.9 0.01 0.30 0.06 93 1021.5
20260504221525 55 17 0.0 0.9 0.01 0.30 0.06 93 1021.5
20260504221004 55 17 0.0 0.9 0.01 0.31 0.06 93 1021.5
20260504220504 55 0 0.0 0.0 0.01 0.36 0.06 93 1021.5
20260504220004 55 0 0.0 0.0 0.01 0.37 0.06 93 1021.4
20260504215504 55 242 0.9 2.6 0.01 0.38 0.06 93 1021.3
20260504215004 56 221 0.9 4.3 0.01 0.43 0.06 93 1021.3
20260504214504 56 202 0.9 7.0 0.01 0.46 0.06 93 1021.2
20260504214004 55 193 0.0 7.0 0.01 0.47 0.06 93 1021.1
20260504213504 55 156 0.0 2.6 0.01 0.49 0.06 93 1021.1
20260504213004 55 146 0.0 2.6 0.01 0.49 0.06 93 1021.1
20260504212504 55 132 0.9 0.9 0.01 0.49 0.06 93 1021.0
20260504212004 54 132 0.9 4.3 0.00 0.48 0.05 93 1020.9
20260504211525 54 132 0.9 4.3 0.00 0.49 0.05 93 1020.9
20260504211004 54 132 0.9 3.5 0.00 0.51 0.05 93 1020.9
20260504210504 54 132 0.9 2.6 0.00 0.52 0.05 93 1020.8
20260504210004 54 132 0.0 2.6 0.00 0.53 0.05 93 1020.7
20260504205504 54 132 0.0 2.6 0.02 0.53 0.05 93 1020.6
20260504205004 54 132 0.9 0.9 0.02 0.54 0.05 93 1020.5
20260504204525 54 133 0.9 4.3 0.02 0.54 0.05 93 1020.5
20260504204004 55 133 0.0 4.3 0.02 0.54 0.05 93 1020.4
20260504203504 55 134 2.6 2.6 0.02 0.54 0.05 93 1020.5
20260504203004 55 0 0.0 0.0 0.02 0.54 0.05 93 1020.4
20260504202504 55 0 0.0 0.0 0.02 0.54 0.05 93 1020.4
20260504202004 55 0 0.0 0.0 0.02 0.54 0.05 93 1020.3
20260504201504 55 138 4.3 4.3 0.02 0.54 0.05 93 1020.3
20260504201004 54 138 4.3 4.3 0.02 0.58 0.05 93 1020.3
20260504200504 54 0 0.0 0.0 0.02 0.62 0.05 93 1020.2
20260504200004 54 0 0.0 0.0 0.02 0.63 0.05 93 1020.2
20260504195504 54 0 0.0 0.0 0.00 0.62 0.03 93 1020.3
20260504195004 54 0 0.0 0.0 0.00 0.69 0.03 92 1020.2
20260504194504 54 0 0.0 0.0 0.00 0.69 0.03 92 1020.1
20260504194004 54 0 0.0 0.0 0.00 0.70 0.03 92 1020.0
20260504193503 54 0 0.0 0.0 0.00 0.71 0.03 93 1020.0
20260504193004 54 0 0.0 0.0 0.00 0.72 0.03 93 1019.9
20260504192504 54 0 0.0 0.0 0.00 0.72 0.03 92 1019.9
20260504192004 54 0 0.0 0.0 0.00 0.78 0.03 92 1019.9
20260504191525 54 174 0.0 0.9 0.00 0.78 0.03 92 1019.9
20260504191025 55 174 0.0 0.9 0.00 0.78 0.03 92 1019.9
20260504190504 55 173 0.0 0.9 0.01 0.78 0.03 92 1019.9
20260504190004 55 174 0.0 0.9 0.01 0.79 0.03 92 1019.8
20260504185504 55 174 0.0 0.9 0.02 0.79 0.03 92 1019.8
20260504185004 55 0 0.0 0.0 0.02 0.79 0.03 92 1019.8